Regional Weather Roundup
Issued by NWS

Home | Current Version | Previous Version | Graphics & Text | Print | Product List | Glossary On
Versions: 1 2 3 4 5 6 7 8 9 10 11 12 13 14 15 16 17 18 19 20 21 22 23 24 25 26 27 28 29 30 31 32 33 34 35 36 37 38 39 40 41 42 43 44 45 46 47 48 49 50
000
ASUS45 KABQ 131310
RWRNM
NEW MEXICO REGIONAL WEATHER ROUNDUP
NATIONAL WEATHER SERVICE ALBUQUERQUE NM
600 AM MST SAT FEB 13 2016

NOTE: "FAIR" MEANS FEW OR NO CLOUDS BELOW 12,000 FEET AGL WITH NO
       SIGNIFICANT WEATHER OR OBSTRUCTIONS TO VISION.

      THIS PRODUCT IS RELEASED AS TWO VERSIONS.  ONE VERSION NEAR
      THE TOP OF THE HOUR CONTAINING PRELIMINARY DATA FROM ALBUQUERQUE
      AND OTHER STATIONS.  A FINAL VERSION WITH ADDITIONAL DATA IS
      ISSUED ABOUT 10 MINUTES AFTER THE HOUR.

NMZ501-503-504-510>518-131400-
NORTHWEST PLATEAU/NORTHCENTRAL MOUNTAINS

CITY           SKY/WX    TMP DP  RH WIND       PRES   REMARKS
FARMINGTON     CLOUDY    27  23  85 E7        30.30R WCI  19
LOS ALAMOS     CLOUDY    40  21  46 CALM      30.34S
SANTA FE       CLOUDY    30  22  72 N12       30.31R WCI  20
TAOS           CLOUDY    28  19  69 CALM      30.34S
ANGEL FIRE     FAIR       9   7  92 CALM      30.36S

$$
NMZ402-403-502-505>509-131400-
WESTCENTRAL MOUNTAINS/SOUTHWEST MOUNTAINS

CITY           SKY/WX    TMP DP  RH WIND       PRES   REMARKS
GALLUP         CLEAR     18  14  84 E5        30.33S WCI  11
GRANTS         CLEAR     16  11  82 NW6       30.35S WCI   7
SILVER CITY      N/A     37  16  41 N9        30.31R WCI  31

$$
NMZ407-409-411-412-131400-
SOUTHERN DESERTS

CITY           SKY/WX    TMP DP  RH WIND       PRES   REMARKS
LORDSBURG      FAIR      30  14  51 SE5       30.25R WCI  25
DEMING         PTCLDY    32  13  45 NW6       30.26R WCI  26
LAS CRUCES     PTCLDY    40  13  33 NE5       30.26F
HOLLOMAN AFB   CLOUDY    36  11  35 E2        30.26S
ALAMOGORDO     CLOUDY    37  10  32 N7        30.28S WCI  32
T OR C         MOCLDY    41  11  29 N7        30.27S

$$
NMZ519>523-131400-
CENTRAL VALLEYS/CENTRAL HIGHLANDS

CITY           SKY/WX    TMP DP  RH WIND       PRES   REMARKS
ALBUQUERQUE    CLOUDY    35  20  54 CALM      30.30S
DOUBLE EAGLE   CLEAR     27  18  69 NW5       30.31S WCI  21
MORIARTY ARPT  FAIR      18  15  86 N3        30.33S
CLINES CORNERS CLOUDY    34  19  54 W12       30.30S WCI  25
BELEN          FAIR      25  14  62 CALM      30.31R
SOCORRO        FAIR      34  13  41 NW7       30.30S WCI  28

$$
NMZ524>526-539-540-131400-
SOUTHCENTRAL MOUNTAINS

CITY           SKY/WX    TMP DP  RH WIND       PRES   REMARKS
RUIDOSO          N/A     45  10  24 W6        30.36S

$$
NMZ527>531-131400-
NORTHEAST HIGHLANDS/NORTHEAST PLAINS

CITY           SKY/WX    TMP DP  RH WIND       PRES   REMARKS
LAS VEGAS      CLOUDY    32  19  58 S14       30.28F WCI  22
RATON          CLOUDY    26  20  77 N5        30.26R WCI  20
CLAYTON        CLOUDY    36  24  62 SW12      30.20F WCI  28

$$
NMZ532>537-131400-
EASTCENTRAL PLAINS

CITY           SKY/WX    TMP DP  RH WIND       PRES   REMARKS
TUCUMCARI      CLOUDY    38  27  64 W5        30.26S WCI  34
CANNON AFB     CLEAR     33  32  95 SE1       30.30R
CLOVIS AIRPORT CLEAR     28  25  86 S6        30.31R WCI  22

$$
NMZ028-029-538-131400-
SOUTHEAST PLAINS

CITY           SKY/WX    TMP DP  RH WIND       PRES   REMARKS
ROSWELL        CLOUDY    30  21  69 CALM      30.28S
ARTESIA        CLOUDY    32  23  69 NW7       30.30R WCI  26
CARLSBAD       CLOUDY    31  23  72 NW7       30.28R WCI  24
HOBBS          CLEAR     36  28  75 CALM      30.31R


$$



USA.gov is the U.S. government's official web portal to all federal, state and local government web resources and services.